| time (UTC) | temp F | wind direction | speed knots | gust knots | rain 1hr in | rain 24hr in | rain mn in | humidity % | barometer mb |
| 20260506001528 | 55 | 96 | 4.3 | 12.2 | 0.00 | 0.08 | 0.08 | 57 | 1006.3 |
| 20260506000531 | 55 | 203 | 7.8 | 12.2 | 0.00 | 0.08 | 0.08 | 57 | 1006.2 |
| 20260505235521 | 55 | 47 | 7.0 | 10.4 | 0.00 | 0.08 | 0.08 | 57 | 1006.1 |
| 20260505234634 | 56 | 346 | 7.8 | 12.2 | 0.00 | 0.08 | 0.08 | 57 | 1005.6 |
| 20260505233522 | 56 | 131 | 7.8 | 10.4 | 0.00 | 0.08 | 0.08 | 58 | 1005.6 |
| 20260505232531 | 56 | 314 | 7.8 | 13.0 | 0.00 | 0.08 | 0.08 | 58 | 1005.6 |
| 20260505231520 | 57 | 342 | 9.6 | 17.4 | 0.00 | 0.08 | 0.08 | 57 | 1005.4 |
| 20260505230519 | 57 | 335 | 9.6 | 17.4 | 0.00 | 0.08 | 0.08 | 57 | 1005.2 |
| 20260505225522 | 57 | 104 | 6.1 | 9.6 | 0.00 | 0.08 | 0.08 | 60 | 1004.9 |
| 20260505224525 | 57 | 193 | 3.5 | 10.4 | 0.00 | 0.08 | 0.08 | 62 | 1004.7 |
| 20260505223524 | 57 | 164 | 4.3 | 10.4 | 0.00 | 0.08 | 0.08 | 64 | 1004.8 |
| 20260505222523 | 58 | 42 | 8.7 | 17.4 | 0.00 | 0.08 | 0.08 | 60 | 1004.8 |
| 20260505221531 | 59 | 252 | 8.7 | 17.4 | 0.00 | 0.08 | 0.08 | 57 | 1004.5 |
| 20260505220625 | 60 | 358 | 7.0 | 12.2 | 0.00 | 0.08 | 0.08 | 56 | 1004.2 |
| 20260505215524 | 61 | 130 | 6.1 | 13.0 | 0.00 | 0.08 | 0.08 | 56 | 1004.1 |
| 20260505214519 | 62 | 353 | 6.1 | 10.4 | 0.00 | 0.08 | 0.08 | 58 | 1003.8 |
| 20260505213522 | 62 | 39 | 7.8 | 13.0 | 0.00 | 0.08 | 0.08 | 58 | 1003.3 |
| 20260505212524 | 62 | 252 | 8.7 | 17.4 | 0.00 | 0.08 | 0.08 | 58 | 1003.1 |
| 20260505211526 | 63 | 96 | 10.4 | 17.4 | 0.00 | 0.08 | 0.08 | 58 | 1003.1 |
| 20260505210522 | 63 | 11 | 8.7 | 17.4 | 0.00 | 0.08 | 0.08 | 59 | 1002.8 |
| 20260505205640 | 64 | 53 | 7.0 | 13.0 | 0.00 | 0.08 | 0.08 | 59 | 1002.5 |
| 20260505204528 | 64 | 251 | 7.8 | 13.0 | 0.00 | 0.08 | 0.08 | 60 | 1002.4 |
| 20260505203531 | 65 | 77 | 10.4 | 13.0 | 0.00 | 0.08 | 0.08 | 60 | 1002.2 |
| 20260505202526 | 65 | 9 | 5.2 | 10.4 | 0.00 | 0.08 | 0.08 | 61 | 1001.8 |
| 20260505201655 | 65 | 179 | 7.8 | 13.0 | 0.00 | 0.08 | 0.08 | 62 | 1001.8 |
| 20260505200523 | 65 | 326 | 4.3 | 7.0 | 0.00 | 0.08 | 0.08 | 62 | 1001.6 |
| 20260505195532 | 66 | 46 | 7.8 | 12.2 | 0.00 | 0.08 | 0.08 | 62 | 1001.5 |
| 20260505194520 | 66 | 9 | 8.7 | 17.4 | 0.00 | 0.08 | 0.08 | 65 | 1001.4 |
| 20260505193521 | 66 | 21 | 10.4 | 15.6 | 0.00 | 0.08 | 0.08 | 65 | 1001.3 |
| 20260505192529 | 66 | 78 | 11.3 | 15.6 | 0.00 | 0.08 | 0.08 | 66 | 1001.2 |
| 20260505191626 | 66 | 357 | 5.2 | 10.4 | 0.00 | 0.08 | 0.08 | 67 | 1001.1 |
| 20260505190523 | 66 | 26 | 10.4 | 15.6 | 0.00 | 0.08 | 0.08 | 69 | 1001.0 |
| 20260505185523 | 67 | 121 | 11.3 | 17.4 | 0.00 | 0.08 | 0.08 | 70 | 1000.8 |
| 20260505184520 | 66 | 31 | 9.6 | 13.0 | 0.00 | 0.08 | 0.08 | 71 | 1000.8 |
| 20260505183520 | 65 | 67 | 11.3 | 15.6 | 0.00 | 0.08 | 0.08 | 74 | 1000.9 |
| 20260505182522 | 65 | 115 | 8.7 | 25.2 | 0.00 | 0.08 | 0.08 | 75 | 1000.9 |
| 20260505181523 | 66 | 303 | 8.7 | 14.8 | 0.04 | 0.08 | 0.08 | 74 | 1000.5 |
| 20260505180642 | 66 | 279 | 8.7 | 15.6 | 0.08 | 0.08 | 0.08 | 74 | 1000.4 |
| 20260505175524 | 66 | 355 | 9.6 | 17.4 | 0.08 | 0.08 | 0.08 | 74 | 1000.3 |
| 20260505174523 | 66 | 360 | 11.3 | 17.4 | 0.08 | 0.08 | 0.08 | 76 | 1000.0 |
| 20260505173532 | 66 | 351 | 12.2 | 18.2 | 0.08 | 0.08 | 0.08 | 78 | 1000.1 |
| 20260505172522 | 65 | 298 | 10.4 | 23.5 | 0.08 | 0.08 | 0.08 | 81 | 999.9 |
| 20260505171528 | 69 | 173 | 13.0 | 17.4 | 0.04 | 0.04 | 0.04 | 70 | 1000.1 |
| 20260505170525 | 72 | 348 | 8.7 | 15.6 | 0.00 | 0.00 | 0.00 | 61 | 999.6 |
| 20260505165520 | 73 | 150 | 12.2 | 26.1 | 0.00 | 0.00 | 0.00 | 60 | 999.4 |
| 20260505164533 | 74 | 46 | 14.8 | 22.6 | 0.00 | 0.00 | 0.00 | 59 | 999.4 |
| 20260505163522 | 74 | 279 | 13.9 | 23.5 | 0.00 | 0.00 | 0.00 | 59 | 999.4 |
| 20260505162711 | 74 | 146 | 13.0 | 23.5 | 0.00 | 0.00 | 0.00 | 61 | 999.2 |
| 20260505161623 | 73 | 167 | 11.3 | 15.6 | 0.00 | 0.00 | 0.00 | 64 | 999.3 |
| 20260505160529 | 72 | 220 | 10.4 | 17.4 | 0.00 | 0.00 | 0.00 | 66 | 999.2 |
| 20260505152523 | 68 | 186 | 7.0 | 13.0 | 0.00 | 0.00 | 0.00 | 71 | 999.4 |
| 20260505151525 | 68 | 143 | 7.0 | 15.6 | 0.00 | 0.00 | 0.00 | 72 | 999.4 |
| 20260505150521 | 67 | 240 | 8.7 | 14.8 | 0.00 | 0.00 | 0.00 | 73 | 999.7 |
| 20260505140534 | 62 | 291 | 7.8 | 15.6 | 0.00 | 0.00 | 0.00 | 80 | 999.7 |
| 20260505124523 | 61 | 83 | 7.0 | 10.4 | 0.00 | 0.00 | 0.00 | 80 | 999.8 |
| 20260505123529 | 61 | 164 | 7.0 | 13.0 | 0.00 | 0.00 | 0.00 | 79 | 999.8 |
| 20260505122520 | 61 | 225 | 9.6 | 15.6 | 0.00 | 0.00 | 0.00 | 79 | 999.9 |
| 20260505121521 | 61 | 201 | 8.7 | 17.4 | 0.00 | 0.00 | 0.00 | 78 | 999.9 |
| 20260505120524 | 61 | 173 | 10.4 | 18.2 | 0.00 | 0.00 | 0.00 | 78 | 999.9 |
| 20260505115524 | 61 | 62 | 7.8 | 13.0 | 0.00 | 0.00 | 0.00 | 78 | 1000.0 |
| 20260505114526 | 61 | 187 | 7.8 | 20.0 | 0.00 | 0.00 | 0.00 | 78 | 1000.0 |
| 20260505113521 | 61 | 211 | 9.6 | 17.4 | 0.00 | 0.00 | 0.00 | 78 | 999.8 |
| 20260505112529 | 60 | 182 | 7.8 | 12.2 | 0.00 | 0.00 | 0.00 | 78 | 999.7 |
| 20260505111521 | 60 | 125 | 9.6 | 18.2 | 0.00 | 0.00 | 0.00 | 78 | 999.6 |
| 20260505110520 | 60 | 46 | 8.7 | 15.6 | 0.00 | 0.00 | 0.00 | 78 | 999.5 |
| 20260505101523 | 58 | 184 | 7.0 | 10.4 | 0.00 | 0.00 | 0.00 | 78 | 999.2 |
| 20260505100529 | 58 | 171 | 7.8 | 15.6 | 0.00 | 0.00 | 0.00 | 78 | 999.2 |
| 20260505095526 | 58 | 85 | 7.8 | 13.0 | 0.00 | 0.00 | 0.00 | 78 | 999.1 |
| 20260505093527 | 58 | 145 | 8.7 | 20.0 | 0.00 | 0.02 | 0.00 | 78 | 999.0 |
| 20260505092532 | 57 | 190 | 7.8 | 20.0 | 0.00 | 0.03 | 0.00 | 77 | 999.0 |
| 20260505091524 | 57 | 148 | 5.2 | 10.4 | 0.00 | 0.04 | 0.00 | 77 | 999.1 |
| 20260505090625 | 57 | 173 | 7.0 | 14.8 | 0.00 | 0.04 | 0.00 | 77 | 999.1 |
| 20260505085643 | 57 | 179 | 7.8 | 12.2 | 0.00 | 0.04 | 0.00 | 76 | 999.3 |
| 20260505084527 | 56 | 147 | 7.0 | 13.0 | 0.00 | 0.04 | 0.00 | 76 | 999.3 |
| 20260505083523 | 56 | 174 | 8.7 | 14.8 | 0.00 | 0.04 | 0.00 | 75 | 999.4 |
| 20260505081525 | 56 | 136 | 8.7 | 14.8 | 0.00 | 0.04 | 0.00 | 72 | 999.5 |
| 20260505080522 | 56 | 201 | 4.3 | 14.8 | 0.00 | 0.04 | 0.00 | 71 | 999.7 |
| 20260505075532 | 56 | 194 | 7.0 | 13.0 | 0.00 | 0.04 | 0.00 | 70 | 999.8 |
| 20260505074521 | 56 | 198 | 2.6 | 12.2 | 0.00 | 0.04 | 0.00 | 69 | 999.8 |
| 20260505073527 | 56 | 219 | 4.3 | 7.0 | 0.00 | 0.04 | 0.00 | 69 | 999.7 |
| 20260505072530 | 56 | 197 | 5.2 | 14.8 | 0.00 | 0.04 | 0.00 | 69 | 999.8 |
| 20260505071527 | 56 | 131 | 3.5 | 10.4 | 0.00 | 0.04 | 0.00 | 70 | 999.9 |
| 20260505070524 | 56 | 142 | 1.7 | 7.0 | 0.00 | 0.04 | 0.00 | 69 | 999.9 |
| 20260505065522 | 56 | 176 | 2.6 | 7.8 | 0.00 | 0.04 | 0.00 | 69 | 999.8 |
| 20260505064630 | 56 | 178 | 4.3 | 7.8 | 0.00 | 0.04 | 0.00 | 69 | 999.8 |
| 20260505062527 | 56 | 133 | 5.2 | 12.2 | 0.00 | 0.06 | 0.00 | 70 | 1000.0 |
| 20260505061527 | 55 | 70 | 1.7 | 7.8 | 0.00 | 0.06 | 0.00 | 71 | 1000.0 |
| 20260505060520 | 56 | 181 | 4.3 | 10.4 | 0.00 | 0.06 | 0.00 | 71 | 1000.1 |
| 20260505055530 | 56 | 179 | 3.5 | 10.4 | 0.00 | 0.06 | 0.00 | 71 | 1000.1 |
| 20260505054523 | 56 | 186 | 4.3 | 10.4 | 0.00 | 0.06 | 0.00 | 70 | 1000.1 |
| 20260505053530 | 56 | 203 | 1.7 | 7.8 | 0.00 | 0.06 | 0.00 | 69 | 1000.2 |
| 20260505052519 | 56 | 164 | 3.5 | 9.6 | 0.00 | 0.06 | 0.00 | 69 | 1000.3 |
| 20260505051548 | 57 | 158 | 0.9 | 7.0 | 0.00 | 0.06 | 0.00 | 69 | 1000.5 |
| 20260505050529 | 57 | 151 | 1.7 | 7.0 | 0.00 | 0.06 | 0.00 | 69 | 1000.5 |
| 20260505041520 | 58 | 170 | 4.3 | 12.2 | 0.00 | 0.06 | 0.00 | 70 | 1000.9 |
| 20260505040528 | 58 | 195 | 4.3 | 12.2 | 0.00 | 0.06 | 0.00 | 69 | 1001.0 |
| 20260505035523 | 58 | 165 | 5.2 | 9.6 | 0.00 | 0.06 | 0.06 | 69 | 1001.1 |
| 20260505034646 | 58 | 175 | 5.2 | 10.4 | 0.00 | 0.06 | 0.06 | 69 | 1001.1 |
| 20260505033521 | 59 | 182 | 1.7 | 5.2 | 0.00 | 0.06 | 0.06 | 68 | 1001.1 |
| 20260505032521 | 59 | 201 | 2.6 | 7.8 | 0.00 | 0.06 | 0.06 | 66 | 1001.1 |
| 20260505031522 | 60 | 203 | 0.9 | 7.0 | 0.00 | 0.06 | 0.06 | 65 | 1001.2 |
| 20260505030521 | 60 | 144 | 3.5 | 9.6 | 0.00 | 0.06 | 0.06 | 65 | 1001.2 |
| 20260505025520 | 61 | 122 | 6.1 | 9.6 | 0.00 | 0.06 | 0.06 | 64 | 1001.2 |
| 20260505024537 | 61 | 113 | 2.6 | 7.8 | 0.00 | 0.06 | 0.06 | 64 | 1001.2 |
| 20260505023526 | 61 | 148 | 6.1 | 12.2 | 0.00 | 0.06 | 0.06 | 64 | 1001.2 |
| 20260505022635 | 61 | 180 | 7.0 | 12.2 | 0.00 | 0.06 | 0.06 | 66 | 1001.1 |
| 20260505021526 | 61 | 203 | 3.5 | 9.6 | 0.00 | 0.06 | 0.06 | 66 | 1001.3 |
| 20260505020531 | 62 | 195 | 7.0 | 12.2 | 0.00 | 0.06 | 0.06 | 65 | 1001.4 |
| 20260505015522 | 62 | 136 | 5.2 | 13.0 | 0.00 | 0.06 | 0.06 | 65 | 1001.3 |
| 20260505014534 | 62 | 136 | 5.2 | 12.2 | 0.00 | 0.06 | 0.06 | 65 | 1001.4 |
| 20260505013524 | 62 | 206 | 6.1 | 10.4 | 0.00 | 0.06 | 0.06 | 65 | 1001.4 |
| 20260505012523 | 63 | 188 | 5.2 | 12.2 | 0.00 | 0.06 | 0.06 | 64 | 1001.5 |
| 20260505011535 | 63 | 164 | 2.6 | 7.8 | 0.00 | 0.06 | 0.06 | 64 | 1001.4 |
| 20260505010524 | 63 | 152 | 1.7 | 9.6 | 0.00 | 0.06 | 0.06 | 63 | 1001.4 |
| 20260505005538 | 64 | 157 | 6.1 | 10.4 | 0.00 | 0.06 | 0.06 | 63 | 1001.3 |
| 20260505004522 | 64 | 189 | 5.2 | 13.0 | 0.00 | 0.06 | 0.06 | 63 | 1001.2 |
| 20260505003525 | 64 | 152 | 8.7 | 18.2 | 0.00 | 0.06 | 0.06 | 63 | 1001.1 |
| 20260505002519 | 64 | 223 | 7.8 | 12.2 | 0.00 | 0.06 | 0.06 | 62 | 1001.1 |